Douglas, WY

12:34 PM MST on February 21, 2017 (GMT -0700)
Converse County

Weather History for KDGW - April, 2013

Change the Weather History Date:

Thursday, April 11, 2013

  Actual Average Record
Temperature  
Mean Temperature 24 °F 42 °F  
Max Temperature 41 °F 56 °F 74 °F (2003)
Min Temperature 6 °F 29 °F 6 °F (2013)
Degree Days  
Heating Degree Days 41 23  
Month to date heating degree days 300 262  
Since 1 July heating degree days 6244 6580  
Cooling Degree Days 0 0  
Month to date cooling degree days 0 0  
Year to date cooling degree days 0 0  
Moisture  
Dew Point 24 °F    
Average Humidity 78    
Maximum Humidity 92    
Minimum Humidity 64    
Precipitation  
Precipitation T in 0.05 in 0.22 in (1983)
Month to date precipitation 0.07 0.39  
Year to date precipitation 1.04 2.03  
Sea Level Pressure  
Sea Level Pressure 29.89 in    
Wind  
Wind Speed 11 mph (NW)    
Max Wind Speed 25 mph    
Max Gust Speed 31 mph    
Visibility 10 miles    
Events Rain    
T = Trace of Precipitation, MM = Missing Value Source: NWS Daily Summary

Daily Weather History Graph

Daily Weather History Graph

Search for Another Location

Airport or City:

Trip Planner

Search our weather history database for the weather conditions in past years. The results will help you decide how hot, cold, wet, or windy it might be!

Date:

Astronomy

Apr. 11, 2013 Rise Set
Actual Time 6:26 AM MDT 7:39 PM MDT
Civil Twilight 5:57 AM MDT 8:08 PM MDT
Nautical Twilight 5:22 AM MDT 8:43 PM MDT
Astronomical Twilight 4:45 AM MDT 9:20 PM MDT
Moon 6:57 AM MDT (4/11) 9:19 PM MDT (4/11)
Length of Visible Light 14h 11m
Length of Day
13h 13m
New Moon, 2% of the Moon is Illuminated
Apr 11
New Moon
Apr 18
First Quarter
Apr 25
Full
May 2
Last Quarter
May 9
New

Hourly Weather History & Observations

Time (MDT) Temp. Windchill Dew Point Humidity Pressure Visibility Wind Dir Wind Speed Gust Speed Precip Events Conditions
12:53 AM 6.1 °F -4.3 °F 1.9 °F 83% 30.03 in 10.0 mi ESE 5.8 mph - N/A   Clear
1:53 AM 7.0 °F - 1.9 °F 80% 29.99 in 10.0 mi Calm Calm - N/A   Partly Cloudy
2:53 AM 8.1 °F - 5.0 °F 87% 29.95 in 10.0 mi Calm Calm - N/A   Partly Cloudy
3:53 AM 10.9 °F - 8.1 °F 88% 29.92 in 10.0 mi Calm Calm - N/A   Overcast
4:53 AM 14.0 °F 3.9 °F 10.9 °F 88% 29.90 in 10.0 mi NNW 6.9 mph - N/A   Overcast
5:36 AM 17.6 °F - 12.2 °F 79% 29.73 in 10.0 mi Calm Calm - N/A   Overcast
5:53 AM 18.0 °F 11.1 °F 14.0 °F 84% 29.86 in 10.0 mi NW 4.6 mph - N/A   Overcast
6:26 AM 23.0 °F 15.8 °F 17.6 °F 80% 29.73 in 10.0 mi WNW 5.8 mph - N/A   Overcast
6:53 AM 28.9 °F 19.2 °F 24.1 °F 82% 29.83 in 10.0 mi NW 11.5 mph - N/A   Overcast
7:53 AM 34.0 °F 23.8 °F 28.9 °F 82% 29.86 in 10.0 mi NW 16.1 mph - 0.01 in   Overcast
8:09 AM 33.8 °F 23.9 °F 28.4 °F 81% 29.75 in 10.0 mi NW 15.0 mph - 0.01 in   Overcast
8:53 AM 37.0 °F 27.4 °F 28.9 °F 73% 29.88 in 10.0 mi NW 17.3 mph - 0.03 in   Overcast
9:53 AM 37.9 °F 27.9 °F 28.0 °F 68% 29.90 in 10.0 mi WNW 19.6 mph - N/A   Overcast
11:53 AM 39.0 °F 29.9 °F 30.0 °F 70% 29.95 in 10.0 mi NW 17.3 mph - N/A   Mostly Cloudy
12:53 PM 39.9 °F 30.8 °F 30.0 °F 68% 29.94 in 10.0 mi NW 18.4 mph 27.6 mph N/A   Mostly Cloudy
1:53 PM 41.0 °F 31.9 °F 30.0 °F 65% 29.93 in 10.0 mi NW 19.6 mph 26.5 mph N/A   Overcast
2:53 PM 39.0 °F 31.4 °F 30.9 °F 73% 29.94 in 10.0 mi WNW 12.7 mph - N/A   Overcast
3:53 PM 39.0 °F 32.3 °F 30.9 °F 73% 29.94 in 10.0 mi NW 10.4 mph - 0.00 in Rain Light Rain
4:53 PM 39.9 °F 31.4 °F 32.0 °F 73% 29.92 in 10.0 mi WNW 16.1 mph - 0.00 in Rain Light Rain
5:53 PM 39.0 °F 30.6 °F 32.0 °F 76% 29.91 in 10.0 mi WNW 15.0 mph - 0.00 in   Overcast
6:53 PM 37.9 °F 28.5 °F 32.0 °F 79% 29.88 in 10.0 mi NW 17.3 mph - 0.00 in Rain Light Rain
7:53 PM 37.0 °F 28.5 °F 33.1 °F 86% 29.87 in 10.0 mi NNW 13.8 mph - 0.00 in Rain Light Rain
8:53 PM 36.0 °F 29.0 °F 32.0 °F 86% 29.89 in 10.0 mi West 9.2 mph - 0.00 in   Overcast
9:53 PM 35.1 °F 31.0 °F 30.9 °F 85% 29.90 in 10.0 mi WNW 4.6 mph - N/A   Overcast
10:53 PM 35.1 °F 30.1 °F 30.9 °F 85% 29.91 in 10.0 mi NW 5.8 mph - N/A   Overcast
11:53 PM 36.0 °F 31.1 °F 30.9 °F 82% 29.90 in 10.0 mi NW 5.8 mph - N/A   Overcast